Regional Weather Roundup
Issued by NWS

Home | Current Version | Previous Version | Graphics & Text | Print | Product List | Glossary On
Versions: 1 2 3 4 5 6 7 8 9 10 11 12 13 14 15 16 17 18 19 20 21 22 23 24 25 26 27 28 29 30 31 32 33 34 35 36 37 38 39 40 41 42 43 44 45 46 47 48 49 50
000
ASUS43 KOAX 282210
RWRNE

WEATHER ROUNDUP FOR NEBRASKA
NATIONAL WEATHER SERVICE OMAHA NE
400 PM CST SAT FEB 28 2015

NOTES: SATELLITE DATA IS BEING USED TO AUGMENT CLOUD COVER ABOVE
       12000 FEET.
       "FAIR" INDICATES FEW OR NO CLOUDS BELOW 12,000 FEET WITH NO
       SIGNIFICANT WEATHER AND/OR OBSTRUCTIONS TO VISIBILITY.

  * THESE STATIONS DO NOT REPORT WEATHER SUCH AS RAIN...SNOW OR FOG.

NEZ001>004-019>022-054>056-282300-
NEBRASKA PANHANDLE

CITY           SKY/WX    TMP DP  RH WIND       PRES   REMARKS
SCOTTSBLUFF    SUNNY     33  10  38 VRB3      30.01F
ALLIANCE       SUNNY     31  10  41 E12       30.01F WCI  22
CHADRON        PTSUNNY   28  13  53 CALM      30.08S
KIMBALL        MOSUNNY   26  14  59 E3        29.95F
SIDNEY         SUNNY     27  13  55 S3        30.00F
$$

NEZ057>060-069>072-079>082-282300-
SOUTHWEST NEBRASKA

CITY           SKY/WX    TMP DP  RH WIND       PRES   REMARKS
NORTH PLATTE   PTSUNNY   29  10  45 S7        30.12F WCI  22
IMPERIAL         N/A     26  10  50 VRB7      30.08S WCI  18
LEXINGTON      PTSUNNY   27  12  53 SW9       30.18S WCI  18
MCCOOK         CLOUDY    27  12  53 SE12      30.15S WCI  17
OGALLALA       SUNNY     30  11  45 S5        30.07S WCI  25
$$

NEZ005>010-023>029-035>040-094-282300-
NORTH CENTRAL NEBRASKA

CITY           SKY/WX    TMP DP  RH WIND       PRES   REMARKS
VALENTINE      MOSUNNY   34  10  37 W7        30.10R WCI  28
AINSWORTH      SUNNY     32  10  40 W7        30.11S WCI  25
BROKEN BOW     PTSUNNY   30  11  45 SW10      30.15S WCI  21
O`NEILL        MOSUNNY   32  11  41 SW12      30.16F WCI  23
ORD            PTSUNNY   30   8  39 S8        30.17F WCI  22
THEDFORD       SUNNY     32  12  44 W6        30.11S WCI  26
$$

NEZ041-046>049-061>064-073>077-083>087-282300-
SOUTH CENTRAL NEBRASKA

CITY           SKY/WX    TMP DP  RH WIND       PRES   REMARKS
GRAND ISLAND   PTSUNNY   26  12  55 S14G23    30.25F WCI  14
AURORA         PTSUNNY   24  14  65 S9G16     30.26F WCI  14
HASTINGS       CLOUDY    22  13  68 S9        30.24F WCI  12
HEBRON         FLURRIES  22  15  75 S8        30.32S WCI  12
HOLDREGE       CLOUDY    23  12  63 S7        30.21S WCI  15
KEARNEY *      CLOUDY    25  12  58 S12       30.22S WCI  14
YORK           CLOUDY    23  16  74 S13       30.29S WCI  11
$$

NEZ011>018-030>034-042>045-282300-
NORTHEAST NEBRASKA

CITY           SKY/WX    TMP DP  RH WIND       PRES   REMARKS
NORFOLK        MOSUNNY   29  12  49 S17       30.24F WCI  17
ALBION         MOSUNNY   29   9  44 S14       30.22F WCI  18
BLAIR          LGT SNOW  24  17  77 S10       30.33F WCI  13
COLUMBUS *     CLOUDY    25   9  50 S10       30.30S WCI  15
FREMONT        PTSUNNY   25  17  71 S10       30.33F WCI  14
WAYNE          MOSUNNY   29  11  47 S14G21    30.27S WCI  18
$$

NEZ050>053-065>068-078-088>093-282300-
SOUTHEAST NEBRASKA

CITY           SKY/WX    TMP DP  RH WIND       PRES   REMARKS
LINCOLN        CLOUDY    23  16  74 S8        30.35F WCI  14
OMAHA EPPLEY   LGT SNOW  23  17  78 S10       30.37F FOG     WCI  12
BEATRICE       LGT SNOW  22  17  82 S8        30.34F WCI  13
FALLS CITY     LGT SNOW  23  18  81 SE8       30.39S WCI  14
NEBRASKA CITY  LGT SNOW  24  17  75 S9        30.37R WCI  14
PLATTSMOUTH    CLOUDY    23  16  75 SE6       30.36S HAZE    WCI  15
$$

NEZ044-045-051>053-067-282300-
OMAHA AREA

CITY           SKY/WX    TMP DP  RH WIND       PRES   REMARKS
OMAHA EPPLEY   LGT SNOW  23  17  78 S10       30.37F FOG     WCI  12
BLAIR          LGT SNOW  24  17  77 S10       30.33F WCI  13
FREMONT        PTSUNNY   25  17  71 S10       30.33F WCI  14
MILLARD        LGT SNOW  23  17  77 S7        30.36F WCI  15
OFFUTT AFB     FLURRIES  23  17  79 SE7       30.36F WCI  14
PLATTSMOUTH    CLOUDY    23  16  75 SE6       30.36S HAZE    WCI  15
WAHOO          FLURRIES  24  15  71 S15       30.34S WCI  11
$$



USA.gov is the U.S. government's official web portal to all federal, state and local government web resources and services.